| time (UTC) | temp C | wind direction | speed KPH | gust KPH | rain 1hr cm | rain 24hr cm | rain mn cm | humidity % | barometer mb |
| 20260503200026 | 16 | 270 | 9.7 | 20.9 | 0.00 | 0.00 | 0.00 | 42 | 1015.5 |
| 20260503195409 | 16 | 248 | 8.0 | 9.7 | 0.00 | 0.00 | 0.00 | 42 | 1015.9 |
| 20260503194821 | 15 | 293 | 4.8 | 11.3 | 0.00 | 0.00 | 0.00 | 43 | 1015.9 |
| 20260503194241 | 14 | 270 | 3.2 | 4.8 | 0.00 | 0.00 | 0.00 | 43 | 1015.9 |
| 20260503193621 | 15 | 225 | 8.0 | 24.1 | 0.00 | 0.00 | 0.00 | 41 | 1015.9 |
| 20260503193043 | 16 | 203 | 9.7 | 22.5 | 0.00 | 0.00 | 0.00 | 43 | 1015.9 |
| 20260503192436 | 16 | 248 | 8.0 | 9.7 | 0.00 | 0.00 | 0.00 | 42 | 1016.2 |
| 20260503191842 | 16 | 248 | 11.3 | 11.3 | 0.00 | 0.00 | 0.00 | 45 | 1016.2 |
| 20260503191249 | 15 | 270 | 12.9 | 12.9 | 0.00 | 0.00 | 0.00 | 43 | 1016.2 |
| 20260503190636 | 16 | 248 | 11.3 | 17.7 | 0.00 | 0.00 | 0.00 | 42 | 1016.2 |
| 20260503190052 | 15 | 270 | 8.0 | 11.3 | 0.00 | 0.00 | 0.00 | 40 | 1016.2 |
| 20260503185423 | 15 | 248 | 16.1 | 20.9 | 0.00 | 0.00 | 0.00 | 43 | 1016.5 |
| 20260503184846 | 15 | 248 | 24.1 | 24.1 | 0.00 | 0.00 | 0.00 | 43 | 1016.5 |
| 20260503184216 | 15 | 293 | 8.0 | 9.7 | 0.00 | 0.00 | 0.00 | 42 | 1016.5 |
| 20260503183031 | 15 | 270 | 8.0 | 19.3 | 0.00 | 0.00 | 0.00 | 43 | 1016.5 |
| 20260503182446 | 15 | 270 | 12.9 | 20.9 | 0.00 | 0.00 | 0.00 | 42 | 1016.5 |
| 20260503181853 | 15 | 225 | 11.3 | 11.3 | 0.00 | 0.00 | 0.00 | 45 | 1016.5 |
| 20260503181236 | 15 | 248 | 8.0 | 17.7 | 0.00 | 0.00 | 0.00 | 43 | 1016.9 |
| 20260503180651 | 15 | 270 | 11.3 | 14.5 | 0.00 | 0.00 | 0.00 | 45 | 1016.9 |
| 20260503180026 | 15 | 293 | 8.0 | 11.3 | 0.00 | 0.00 | 0.00 | 46 | 1016.9 |
| 20260503175417 | 13 | 270 | 16.1 | 19.3 | 0.00 | 0.00 | 0.00 | 44 | 1016.9 |
| 20260503174820 | 14 | 23 | 6.4 | 12.9 | 0.00 | 0.00 | 0.00 | 44 | 1016.9 |
| 20260503174213 | 14 | 270 | 12.9 | 16.1 | 0.00 | 0.00 | 0.00 | 46 | 1017.2 |
| 20260503173627 | 13 | 270 | 16.1 | 20.9 | 0.00 | 0.00 | 0.00 | 47 | 1017.2 |
| 20260503173035 | 14 | 293 | 4.8 | 16.1 | 0.00 | 0.00 | 0.00 | 47 | 1017.2 |
| 20260503172413 | 14 | 248 | 8.0 | 12.9 | 0.00 | 0.00 | 0.00 | 45 | 1017.6 |
| 20260503171814 | 14 | 270 | 16.1 | 20.9 | 0.00 | 0.00 | 0.00 | 47 | 1017.2 |
| 20260503171254 | 13 | 248 | 9.7 | 20.9 | 0.00 | 0.00 | 0.00 | 49 | 1017.2 |
| 20260503150630 | 10 | 270 | 6.4 | 25.7 | 0.00 | 0.00 | 0.00 | 61 | 1018.9 |
| 20260503130620 | 7 | 203 | 3.2 | 11.3 | 0.00 | 0.00 | 0.00 | 79 | 1018.9 |
| 20260503110645 | 1 | 338 | 0.0 | 0.0 | 0.00 | 0.00 | 0.00 | 99 | 1018.2 |
| 20260503081246 | 1 | 270 | 0.0 | 0.0 | 0.00 | 0.00 | 0.00 | 96 | 1016.9 |
| 20260503072410 | 2 | 203 | 0.0 | 0.0 | 0.00 | 0.00 | 0.00 | 96 | 1016.2 |
| 20260503071838 | 3 | 225 | 0.0 | 0.0 | 0.00 | 0.00 | 0.00 | 96 | 1016.2 |
| 20260503071227 | 3 | 203 | 0.0 | 0.0 | 0.00 | 0.00 | 0.00 | 96 | 1016.2 |
| 20260503070623 | 3 | 180 | 0.0 | 0.0 | 0.00 | 0.00 | 0.00 | 96 | 1016.2 |
| 20260503054237 | 5 | 248 | 3.2 | 4.8 | 0.00 | 0.00 | 0.00 | 96 | 1016.2 |
| 20260503053623 | 4 | 248 | 4.8 | 4.8 | 0.00 | 0.00 | 0.00 | 96 | 1016.2 |
| 20260503053051 | 5 | 270 | 3.2 | 3.2 | 0.00 | 0.00 | 0.00 | 96 | 1016.2 |
| 20260503052424 | 5 | 270 | 3.2 | 3.2 | 0.00 | 0.00 | 0.00 | 95 | 1016.2 |
| 20260503051854 | 5 | 248 | 3.2 | 3.2 | 0.00 | 0.00 | 0.00 | 95 | 1016.2 |
| 20260503051244 | 4 | 248 | 3.2 | 4.8 | 0.00 | 0.00 | 0.00 | 96 | 1016.2 |
| 20260503050649 | 4 | 270 | 4.8 | 4.8 | 0.00 | 0.00 | 0.00 | 97 | 1016.2 |
| 20260503050053 | 5 | 248 | 3.2 | 4.8 | 0.00 | 0.00 | 0.00 | 96 | 1016.2 |
| 20260503045418 | 4 | 248 | 4.8 | 4.8 | 0.00 | 0.00 | 0.00 | 96 | 1016.2 |
| 20260503044845 | 4 | 248 | 4.8 | 4.8 | 0.00 | 0.00 | 0.00 | 96 | 1016.5 |
| 20260503044242 | 5 | 248 | 3.2 | 3.2 | 0.00 | 0.00 | 0.00 | 94 | 1016.5 |
| 20260503043639 | 5 | 248 | 0.0 | 0.0 | 0.00 | 0.00 | 0.00 | 91 | 1016.2 |
| 20260503043016 | 5 | 158 | 0.0 | 0.0 | 0.00 | 0.00 | 0.00 | 92 | 1016.2 |
| 20260503042443 | 5 | 158 | 0.0 | 0.0 | 0.00 | 0.00 | 0.00 | 91 | 1016.2 |
| 20260503041823 | 5 | 270 | 0.0 | 0.0 | 0.00 | 0.00 | 0.00 | 91 | 1016.2 |
| 20260503040623 | 5 | 248 | 3.2 | 3.2 | 0.00 | 0.00 | 0.00 | 92 | 1016.5 |
| 20260503040047 | 5 | 248 | 3.2 | 4.8 | 0.00 | 0.00 | 0.00 | 92 | 1016.5 |
| 20260503035451 | 5 | 270 | 3.2 | 4.8 | 0.00 | 0.00 | 0.00 | 93 | 1016.5 |
| 20260503034851 | 5 | 270 | 3.2 | 3.2 | 0.00 | 0.00 | 0.00 | 93 | 1016.5 |
| 20260503034216 | 5 | 270 | 3.2 | 3.2 | 0.00 | 0.00 | 0.00 | 92 | 1016.2 |
| 20260503033638 | 5 | 270 | 1.6 | 3.2 | 0.00 | 0.00 | 0.00 | 92 | 1016.2 |
| 20260503032419 | 5 | 248 | 3.2 | 3.2 | 0.00 | 0.00 | 0.00 | 92 | 1016.2 |
| 20260503031839 | 5 | 248 | 3.2 | 3.2 | 0.00 | 0.00 | 0.00 | 91 | 1016.5 |
| 20260503031244 | 5 | 225 | 0.0 | 0.0 | 0.00 | 0.00 | 0.00 | 88 | 1016.2 |
| 20260503030642 | 5 | 225 | 0.0 | 3.2 | 0.00 | 0.00 | 0.00 | 89 | 1016.2 |
| 20260503030024 | 5 | 248 | 0.0 | 3.2 | 0.00 | 0.00 | 0.00 | 87 | 1016.2 |
| 20260503025424 | 5 | 270 | 0.0 | 0.0 | 0.00 | 0.00 | 0.00 | 86 | 1016.2 |
| 20260503024829 | 6 | 270 | 3.2 | 3.2 | 0.00 | 0.00 | 0.00 | 86 | 1016.5 |
| 20260503024233 | 6 | 270 | 0.0 | 3.2 | 0.00 | 0.00 | 0.00 | 85 | 1016.2 |
| 20260503023618 | 6 | 225 | 0.0 | 3.2 | 0.00 | 0.00 | 0.00 | 83 | 1016.2 |
| 20260503023036 | 6 | 113 | 0.0 | 3.2 | 0.00 | 0.00 | 0.00 | 83 | 1016.2 |
| 20260503022451 | 6 | 270 | 0.0 | 0.0 | 0.00 | 0.00 | 0.00 | 80 | 1016.2 |
| 20260503021851 | 7 | 158 | 0.0 | 0.0 | 0.00 | 0.00 | 0.00 | 78 | 1016.2 |
| 20260503021241 | 7 | 248 | 0.0 | 0.0 | 0.00 | 0.00 | 0.00 | 79 | 1016.2 |
| 20260503020644 | 7 | 90 | 3.2 | 3.2 | 0.00 | 0.00 | 0.00 | 77 | 1016.2 |
| 20260503020048 | 7 | 135 | 0.0 | 0.0 | 0.00 | 0.00 | 0.00 | 75 | 1016.2 |
| 20260503014817 | 7 | 270 | 4.8 | 4.8 | 0.00 | 0.00 | 0.00 | 76 | 1016.2 |
| 20260503014252 | 7 | 180 | 0.0 | 3.2 | 0.00 | 0.00 | 0.00 | 75 | 1015.9 |
| 20260503013626 | 7 | 225 | 3.2 | 3.2 | 0.00 | 0.00 | 0.00 | 76 | 1015.9 |
| 20260503013014 | 7 | 203 | 3.2 | 3.2 | 0.00 | 0.00 | 0.00 | 75 | 1015.9 |
| 20260503011811 | 7 | 113 | 3.2 | 3.2 | 0.00 | 0.00 | 0.00 | 71 | 1015.5 |
| 20260503011231 | 8 | 23 | 0.0 | 0.0 | 0.00 | 0.00 | 0.00 | 69 | 1015.5 |
| 20260503010623 | 8 | 270 | 1.6 | 3.2 | 0.00 | 0.00 | 0.00 | 69 | 1015.5 |
| 20260503010028 | 8 | 270 | 4.8 | 4.8 | 0.00 | 0.00 | 0.00 | 69 | 1015.5 |
| 20260503005413 | 8 | 158 | 6.4 | 8.0 | 0.00 | 0.00 | 0.00 | 68 | 1015.2 |
| 20260503004843 | 8 | 248 | 0.0 | 0.0 | 0.00 | 0.00 | 0.00 | 69 | 1015.2 |
| 20260503004211 | 8 | 203 | 1.6 | 3.2 | 0.00 | 0.00 | 0.00 | 69 | 1015.2 |
| 20260503003641 | 8 | 180 | 0.0 | 3.2 | 0.00 | 0.00 | 0.00 | 68 | 1015.2 |
| 20260503003018 | 9 | 90 | 0.0 | 0.0 | 0.00 | 0.00 | 0.00 | 65 | 1015.2 |
| 20260503001815 | 9 | 248 | 0.0 | 0.0 | 0.00 | 0.00 | 0.00 | 64 | 1015.2 |
| 20260503001232 | 9 | 270 | 3.2 | 4.8 | 0.00 | 0.00 | 0.00 | 64 | 1014.9 |
| 20260503000048 | 10 | 203 | 3.2 | 6.4 | 0.00 | 0.00 | 0.00 | 61 | 1014.5 |
| 20260502235410 | 10 | 270 | 4.8 | 6.4 | 0.00 | 0.00 | 0.00 | 60 | 1014.5 |
| 20260502234841 | 10 | 270 | 3.2 | 9.7 | 0.00 | 0.00 | 0.00 | 59 | 1014.5 |
| 20260502234245 | 10 | 225 | 8.0 | 9.7 | 0.00 | 0.00 | 0.00 | 58 | 1014.5 |
| 20260502233641 | 10 | 270 | 8.0 | 12.9 | 0.00 | 0.00 | 0.00 | 57 | 1014.5 |
| 20260502232429 | 10 | 203 | 3.2 | 9.7 | 0.00 | 0.00 | 0.00 | 56 | 1014.2 |
| 20260502231840 | 11 | 270 | 6.4 | 11.3 | 0.00 | 0.00 | 0.00 | 54 | 1014.2 |
| 20260502231212 | 11 | 225 | 3.2 | 12.9 | 0.00 | 0.00 | 0.00 | 55 | 1014.2 |
| 20260502230630 | 11 | 158 | 9.7 | 9.7 | 0.00 | 0.00 | 0.00 | 55 | 1013.8 |
| 20260502230040 | 11 | 248 | 9.7 | 12.9 | 0.00 | 0.00 | 0.00 | 54 | 1013.8 |
| 20260502225434 | 11 | 225 | 8.0 | 8.0 | 0.00 | 0.00 | 0.00 | 54 | 1013.8 |
| 20260502224832 | 11 | 248 | 4.8 | 6.4 | 0.00 | 0.00 | 0.00 | 56 | 1013.8 |
| 20260502224226 | 11 | 248 | 8.0 | 8.0 | 0.00 | 0.00 | 0.00 | 56 | 1013.8 |
| 20260502223035 | 11 | 270 | 8.0 | 19.3 | 0.00 | 0.00 | 0.00 | 52 | 1013.8 |
| 20260502222421 | 11 | 270 | 8.0 | 16.1 | 0.00 | 0.00 | 0.00 | 51 | 1013.8 |
| 20260502221839 | 11 | 225 | 3.2 | 11.3 | 0.00 | 0.00 | 0.00 | 52 | 1013.8 |
| 20260502221254 | 12 | 270 | 8.0 | 11.3 | 0.00 | 0.00 | 0.00 | 51 | 1013.5 |
| 20260502220621 | 11 | 270 | 11.3 | 12.9 | 0.00 | 0.00 | 0.00 | 50 | 1013.5 |
| 20260502220030 | 12 | 225 | 6.4 | 12.9 | 0.00 | 0.00 | 0.00 | 50 | 1013.5 |
| 20260502215411 | 12 | 293 | 9.7 | 14.5 | 0.00 | 0.00 | 0.00 | 50 | 1013.2 |
| 20260502214823 | 12 | 248 | 12.9 | 12.9 | 0.00 | 0.00 | 0.00 | 49 | 1013.2 |
| 20260502213651 | 11 | 248 | 4.8 | 14.5 | 0.00 | 0.00 | 0.00 | 50 | 1013.2 |
| 20260502213041 | 11 | 248 | 6.4 | 8.0 | 0.00 | 0.00 | 0.00 | 51 | 1013.2 |
| 20260502212448 | 11 | 248 | 9.7 | 9.7 | 0.00 | 0.00 | 0.00 | 51 | 1013.2 |
| 20260502211814 | 11 | 225 | 9.7 | 14.5 | 0.00 | 0.00 | 0.00 | 51 | 1013.2 |
| 20260502211238 | 11 | 203 | 6.4 | 14.5 | 0.00 | 0.00 | 0.00 | 49 | 1013.2 |
| 20260502210627 | 12 | 225 | 6.4 | 9.7 | 0.00 | 0.00 | 0.00 | 49 | 1013.2 |
| 20260502210034 | 12 | 270 | 12.9 | 12.9 | 0.00 | 0.00 | 0.00 | 49 | 1013.2 |
| 20260502205414 | 12 | 248 | 9.7 | 9.7 | 0.00 | 0.00 | 0.00 | 50 | 1013.2 |
| 20260502204235 | 11 | 270 | 11.3 | 24.1 | 0.00 | 0.00 | 0.00 | 49 | 1013.5 |
| 20260502203612 | 12 | 225 | 14.5 | 20.9 | 0.00 | 0.00 | 0.00 | 48 | 1013.5 |
| 20260502203052 | 12 | 270 | 9.7 | 14.5 | 0.00 | 0.00 | 0.00 | 49 | 1013.5 |
| 20260502202443 | 12 | 248 | 8.0 | 8.0 | 0.00 | 0.00 | 0.00 | 50 | 1013.5 |
| 20260502201845 | 11 | 270 | 4.8 | 4.8 | 0.00 | 0.00 | 0.00 | 51 | 1013.5 |
| 20260502201211 | 12 | 203 | 11.3 | 14.5 | 0.00 | 0.00 | 0.00 | 51 | 1013.8 |
| 20260502200650 | 12 | 270 | 16.1 | 16.1 | 0.00 | 0.00 | 0.00 | 50 | 1013.5 |